Tracking 27122 objects as of 24-Mar-2023
HD Live streaming from Space Station
objects crossing your sky now

STARLINK-4655

Track STARLINK-4655 now!
10-day predictions
STARLINK-4655 is classified as:


NORAD ID: 53613
Int'l Code: 2022-104AB
Perigee: 546.0 km
Apogee: 547.7 km
Inclination: 53.2 °
Period: 95.4 minutes
Semi major axis: 6917 km
RCS: Unknown
Launch date: August 28, 2022
Source: United States (US)
Launch site: AIR FORCE EASTERN TEST RANGE (AFETR)
Your satellite tracking list
Your tracking list is empty




NASA's NSSDC Master Catalog

Two Line Element Set (TLE):
1 53613U 22104AB  23082.33214953  .00006545  00000-0  42879-3 0  9995
2 53613  53.2186  53.1624 0001226  81.8000 278.3131 15.08853035 32237
Source of the keplerian elements: AFSPC